#timestamp,LO_Frequency,Hit 
1503496815.5,286047003.6,N
1503496835.4,286047004.1,N
1503496855.2,286047004.0,N
1503496875.0,286047004.5,N
1503496875.9,286047004.5,N
1503496895.7,286047005.6,N
1503496915.6,286047004.0,N
1503496935.4,286047002.2,N
1503496955.2,286047002.3,N
1503496975.1,286047003.0,N
1503496976.0,286047003.0,N
1503496995.8,286047002.7,N
1503497015.6,286047000.7,N
1503497035.5,286046998.2,N
1503497055.3,286046998.3,N
1503497075.1,286046999.8,N
1503497095.9,286046998.7,N
1503497115.7,286046996.6,N
1503497135.5,286047000.1,N
1503497155.4,286047002.1,N
1503497175.2,286047000.0,N
1503497195.0,286046999.5,N
1503497195.9,286046999.5,N
1503497215.8,286046999.9,N
1503497235.6,286046998.3,N
1503497255.4,286046998.5,N
1503497275.3,286047002.2,N
1503497295.1,286046999.0,N
1503497296.0,286046999.0,N
1503497315.8,286047000.6,N
1503497335.7,286046998.6,N
1503497355.5,286046994.9,N
1503497375.3,286046999.6,N
1503497395.1,286046996.9,N
1503497415.9,286046995.9,N
1503497435.7,286046992.2,P
1503497455.6,286046991.7,N
1503497475.4,286046992.0,N
1503497495.2,286046994.2,N
1503497515.0,286046995.0,N
1503497516.0,286046995.0,N
1503497535.8,286046997.3,N
1503497555.6,286046995.7,N
1503497575.4,286046996.8,N
1503497595.3,286046996.5,N
1503497615.1,286046996.7,N
1503497635.8,286046997.0,N
1503497655.7,286046999.6,N
1503497675.5,286047001.1,N
1503497695.3,286046998.8,N
1503497715.2,286046999.0,N
1503497735.9,286046994.9,N
1503497755.7,286046993.8,N
1503497775.6,286046992.4,N
1503497795.4,286046990.9,P
1503497815.2,286046995.4,N
1503497835.1,286046993.6,N
1503497836.0,286046993.6,P
1503497855.8,286046996.7,P
1503497875.6,286047001.2,N
1503497895.5,286047000.4,N
1503497915.3,286046999.8,N
1503497935.1,286047001.6,N
1503497955.9,286047002.8,N
1503497975.7,286047002.7,N
1503497995.5,286047002.4,N
1503498015.4,286047002.5,N
1503498035.2,286047001.5,N
1503498055.0,286047004.2,N
1503498055.9,286047004.2,N
1503498075.7,286047005.4,N
1503498095.6,286047006.0,N
1503498115.4,286047003.0,N
1503498135.2,286047003.3,N
1503498155.1,286047001.7,N
1503498156.0,286047001.7,N
1503498175.8,286047002.0,N
1503498195.6,286047002.4,N
1503498215.5,286047001.2,N
1503498235.3,286046999.9,N
1503498255.1,286047001.5,N
1503498275.9,286047002.8,N
1503498295.7,286047000.8,N
1503498315.5,286047000.6,N
1503498335.4,286046996.8,N
1503498355.2,286047000.6,N
1503498375.0,286046997.9,N
1503498375.9,286046997.9,N
1503498395.8,286046998.4,N
1503498415.6,286047002.5,N
1503498435.4,286047002.6,N
1503498455.2,286047004.0,N
1503498475.1,286047003.3,N
1503498476.0,286047003.3,N
1503498495.8,286047007.2,P
1503498515.7,286047007.4,N
1503498535.5,286047003.7,N
1503498555.3,286047005.6,N
1503498575.1,286047003.9,N
1503498595.9,286047003.1,N
1503498615.7,286047003.5,N
1503498635.5,286047001.3,N
1503498655.4,286047005.3,N
1503498675.2,286047005.0,N
1503498695.0,286047003.1,N
1503498695.9,286047003.1,N
1503498715.8,286047004.1,N
1503498735.6,286047002.8,N
1503498755.4,286047001.0,N
1503498775.3,286046998.5,N
1503498795.1,286047000.1,N
1503498815.8,286047002.0,N
1503498835.7,286047002.8,N
1503498855.5,286047002.8,N
1503498875.3,286047003.4,N
1503498895.2,286047004.4,N
1503498915.9,286047000.6,N
1503498935.7,286047000.0,N
1503498955.6,286046999.3,N
1503498975.4,286047000.7,N
1503498995.2,286046998.1,N
1503499015.0,286046996.9,N
1503499016.0,286046996.9,N
1503499035.8,286046999.2,N
1503499055.6,286046998.5,N
1503499075.4,286047000.3,N
1503499095.3,286046998.5,N
1503499115.1,286047002.0,N
1503499135.8,286047001.7,N
1503499155.7,286047001.4,N
1503499175.5,286047000.4,N
1503499195.3,286047000.5,N
1503499215.2,286046996.6,N
1503499235.9,286046999.0,N
1503499255.7,286047000.5,N
1503499275.6,286047000.7,N
1503499295.4,286046998.1,N
1503499315.2,286046997.7,N
1503499335.1,286046998.4,N
1503499336.0,286046998.4,N
1503499355.8,286047000.8,N
1503499375.6,286047000.8,N
1503499395.4,286047001.2,N
1503499415.3,286046997.2,N
1503499435.1,286046997.5,N
1503499455.8,286047000.6,N
1503499475.7,286047002.2,N
1503499495.5,286047002.5,N
1503499515.3,286047001.0,N
1503499535.2,286046997.1,N
1503499555.9,286046997.5,N
1503499575.7,286046997.6,N
1503499595.6,286047000.8,N
1503499615.4,286046996.7,N
1503499635.2,286046997.5,N
1503499655.1,286047001.1,N
1503499656.0,286047001.1,N
1503499675.8,286047002.2,N
1503499695.6,286047003.3,N
1503499715.5,286047002.6,N
1503499735.3,286046999.9,N
1503499755.1,286047002.7,N
1503499775.8,286047001.0,N
1503499795.7,286047000.7,N
1503499815.5,286047000.2,N
1503499835.3,286047000.3,N
1503499855.2,286046998.2,N
1503499875.9,286046998.7,N
1503499895.7,286046998.2,N
1503499915.6,286046998.6,N
1503499935.4,286046999.0,N
1503499955.2,286047000.5,N
1503499975.1,286047004.3,N
1503499976.0,286047004.3,N
1503499995.8,286047001.5,N
1503500015.6,286047000.3,N
1503500035.5,286046999.0,N
1503500055.3,286046997.0,N
1503500075.1,286046997.0,N
1503500095.9,286046997.4,N
1503500115.7,286046998.7,N
1503500135.5,286046998.3,N
1503500155.3,286046998.3,N
1503500175.2,286046997.1,N
1503500195.0,286047000.9,N
1503500195.9,286047000.9,N
1503500215.7,286046997.2,N
1503500235.6,286046996.8,N
1503500255.4,286046997.2,N
1503500275.2,286046998.8,N
1503500295.1,286046998.8,N
1503500296.0,286046998.8,N
1503500315.8,286046999.9,N
1503500335.6,286046998.6,N
1503500355.5,286047001.1,N
1503500375.3,286046999.6,N
1503500395.1,286046999.9,N
